User: anonymous   Login
Location: Sungai Apap
(2.6167°N, 113.3833°E)
Time: 06:35:20
(UTC+00:00)
Language:

SL-8 R/B - Orbit

View from above orbital plane
View from above orbital plane
View from above satellite
View from above satellite

Ground track
Ground track

The orbit data is extracted from the following two-line orbital elements,

1 33066U 08031G   24202.76798465  .00001180  00000-0  22050-3 0  9994
2 33066  48.4419 225.4390 0008011 275.0994  84.9003 14.71383405863783
Epoch (UTC): 20 July 2024 18:25:53
Eccentricity: 0.0008011
inclination: 48.4419°
perigee height: 651 km
apogee height: 662 km
right ascension of ascending node: 225.4390°
argument of perigee: 275.0994°
revolutions per day: 14.71383405
mean anomaly at epoch: 84.9003°
orbit number at epoch: 86378

The dashed part of the orbit path shows where the satellite is in the earth's shadow,  

DLR